Flag for U.S.A. Weather past 2 weeks in St. Augustine, Florida, U.S.A.

Now
82 °F

Passing clouds.


Feels Like: 89 °F
Forecast: 77 / 90 °F
Wind: 8 mph from Southeast

Location: St. Augustine Airport

Current Time: Aug 1, 2014 at 12:11:10 AM

Latest Report: Jul 31, 2014 at 10:58 PM


Visibility: 10 mi

Pressure: 29.99 "Hg

Humidity: 82%

Dew point: 76 °F

Location of St. AugustineLocation

Historic Weather in St. Augustine — Graph

°F

St. Augustine temperature yesterday

Maximum temperature yesterday: 92 °F (at 10:58 AM)
Minimum temperature yesterday: 73 °F (at 5:58 AM)
Average temperature yesterday: 84 °F

Past Weeks' High & Low Weather Summary

 TemperatureHumidityPressure
High97 °F (Jul 27, 4:58 PM)97% (Jul 17, 12:58 AM)30.11 "Hg (Jul 17, 12:58 AM)
Low72 °F (Jul 22, 5:58 AM)30% (Jul 30, 3:58 PM)29.88 "Hg (Jul 29, 4:58 PM)
Average83 °F74%30.02 "Hg
* Reported Jul 16 10:58 PM — Jul 31 10:58 PM, St. Augustine, Weather by CustomWeather, © 2014

Note: Actual official high and low records may vary slightly from our data, if they occured in-between our weather recording intervals... More about our weather records

Advertising

St. Augustine weather history for previous 24 hours

 ConditionsComfort  
Time TempWeatherWind HumidityBarometerVisibility
10:58 PM
Jul 31
82 °FPassing clouds.8 mph82%29.99 "Hg10 mi
9:58 PM83 °FPassing clouds.8 mph77%29.99 "Hg10 mi
8:58 PM84 °FPartly sunny.7 mph74%29.99 "Hg10 mi
7:58 PM85 °FScattered clouds.12 mph70%29.98 "Hg10 mi
6:58 PM87 °FPassing clouds.13 mph65%29.97 "Hg10 mi
5:58 PM88 °FPartly sunny.15 mph61%29.97 "Hg10 mi
4:58 PM90 °FPassing clouds.12 mph61%29.96 "Hg10 mi
3:58 PM91 °FPassing clouds.10 mph57%29.97 "Hg10 mi
2:58 PM92 °FSunny.13 mph54%29.99 "Hg10 mi
1:58 PM92 °FSunny.10 mph52%30.00 "Hg10 mi
12:58 PM92 °FPassing clouds.10 mph49%30.01 "Hg10 mi
11:58 AM92 °FPassing clouds.8 mph49%30.01 "Hg10 mi
10:58 AM92 °FPassing clouds.6 mph47%30.01 "Hg10 mi
9:58 AM89 °FOvercast.No wind57%30.01 "Hg10 mi
8:58 AM83 °FSunny.No wind65%30.00 "Hg10 mi
7:58 AM77 °FSunny.No wind71%30.00 "Hg10 mi
6:58 AM73 °FPassing clouds.No wind81%29.98 "Hg10 mi
5:58 AM73 °FPassing clouds.No wind84%29.97 "Hg10 mi
4:58 AM74 °FClear.6 mph88%29.96 "Hg10 mi
3:58 AM75 °FClear.6 mph82%29.95 "Hg10 mi
2:58 AM77 °FClear.5 mph77%29.96 "Hg10 mi
1:58 AM77 °FClear.5 mph79%29.97 "Hg10 mi
12:58 AM78 °FClear.6 mph76%29.98 "Hg10 mi
Weather by CustomWeather, © 2014

See weather overviewHow to use our weather pages